GW0634 Weather Reports


time (UTC)temp
C
wind
direction
speed
KPH
gust
KPH
rain 1hr
cm
rain 24hr
cm
rain mn
cm
humidity
%
barometer
mb
20260507145038 9 261 6.4 8.0 0.00 0.03 0.03 76 891.9
20260507144534 8 259 11.3 12.9 0.00 0.03 0.03 75 891.7
20260507144032 8 247 8.0 11.3 0.00 0.03 0.03 76 892.0
20260507143529 8 230 11.3 14.5 0.00 0.03 0.03 73 891.9
20260507143027 8 221 11.3 14.5 0.00 0.03 0.03 77 892.0
20260507142522 7 241 12.9 16.1 0.00 0.03 0.03 77 891.8
20260507142019 7 252 9.7 11.3 0.00 0.03 0.03 78 891.8
20260507141515 7 253 6.4 8.0 0.00 0.03 0.03 79 891.8
20260507141012 7 255 16.1 22.5 0.00 0.03 0.03 78 891.9
20260507140508 7 251 8.0 9.7 0.00 0.03 0.03 80 891.8
20260507140006 6 238 8.0 12.9 0.00 0.03 0.03 79 891.7
20260507135503 6 247 1.6 3.2 0.00 0.03 0.03 80 891.8
20260507135000 6 235 6.4 11.3 0.00 0.03 0.03 80 891.9
20260507134456 5 257 6.4 11.3 0.00 0.03 0.03 81 891.8
20260507133952 5 249 8.0 9.7 0.00 0.03 0.03 82 892.0
20260507133448 5 254 11.3 16.1 0.13 0.03 0.03 81 892.1
20260507132947 5 246 11.3 14.5 0.13 0.03 0.03 81 891.9
20260507132442 4 255 4.8 8.0 0.00 0.00 0.00 84 891.9
20260507131939 4 248 11.3 12.9 0.00 0.00 0.00 83 891.9
20260507131436 3 253 6.4 9.7 0.00 0.00 0.00 85 892.0
20260507130933 3 261 9.7 11.3 0.00 0.00 0.00 85 891.8
20260507130431 3 242 6.4 8.0 0.00 0.00 0.00 85 891.9
20260507125929 3 271 9.7 12.9 0.00 0.00 0.00 84 891.9
20260507125427 3 262 9.7 11.3 0.00 0.00 0.00 85 891.8
20260507124924 2 264 8.0 11.3 0.00 0.00 0.00 86 891.9
20260507124420 2 263 8.0 11.3 0.00 0.00 0.00 87 891.7
20260507123919 2 269 9.7 11.3 0.00 0.00 0.00 88 891.7
20260507123415 2 277 9.7 12.9 0.00 0.00 0.00 89 891.8
20260507122912 2 269 8.0 11.3 0.00 0.00 0.00 88 892.0
20260507122407 2 275 9.7 12.9 0.00 0.00 0.00 88 891.7
20260507121904 2 266 8.0 11.3 0.00 0.00 0.00 89 891.6
20260507121359 1 293 9.7 11.3 0.00 0.00 0.00 91 891.8
20260507120856 1 286 6.4 8.0 0.00 0.00 0.00 99 891.8
20260507120352 0 262 11.3 14.5 0.00 0.00 0.00 99 891.7
20260507115848 0 262 6.4 9.7 0.00 0.00 0.00 99 891.9
20260507115344 0 256 8.0 8.0 0.00 0.00 0.00 99 891.6
20260507114840 0 250 6.4 8.0 0.00 0.00 0.00 99 891.8
20260507114337 0 249 4.8 4.8 0.00 0.00 0.00 99 891.9
20260507113835 0 252 8.0 11.3 0.00 0.00 0.00 99 891.8
20260507113332 0 251 6.4 9.7 0.00 0.00 0.00 99 891.6
20260507112829 0 248 4.8 4.8 0.00 0.00 0.00 99 891.7
20260507112326 0 248 4.8 4.8 0.00 0.00 0.00 99 891.8
20260507111824 0 250 3.2 4.8 0.00 0.00 0.00 99 891.8
20260507111320 0 251 6.4 8.0 0.00 0.00 0.00 99 891.8
20260507110816 0 268 9.7 12.9 0.00 0.00 0.00 99 891.8
20260507110313 0 252 4.8 4.8 0.00 0.00 0.00 99 891.9
20260507105810 0 252 4.8 8.0 0.00 0.00 0.00 99 891.8
20260507105307 0 255 6.4 8.0 0.00 0.00 0.00 99 891.7
20260507104804 -1 253 8.0 11.3 0.00 0.00 0.00 99 891.8
20260507104300 -1 248 4.8 4.8 0.00 0.00 0.00 99 891.9
20260507103756 -1 247 6.4 8.0 0.00 0.00 0.00 99 892.0
20260507103252 -1 248 4.8 4.8 0.00 0.00 0.00 99 891.7
20260507102749 -1 247 8.0 11.3 0.00 0.00 0.00 99 892.0
20260507102245 -1 250 8.0 9.7 0.00 0.00 0.00 99 891.9
20260507101742 -1 248 6.4 8.0 0.00 0.00 0.00 99 891.8
20260507101237 -1 254 8.0 9.7 0.00 0.00 0.00 99 891.9
20260507100734 -1 267 6.4 9.7 0.00 0.00 0.00 99 892.0
20260507100233 -1 256 4.8 8.0 0.00 0.00 0.00 99 891.9
20260507095730 -1 259 8.0 9.7 0.00 0.00 0.00 99 891.8
20260507095226 -1 250 4.8 4.8 0.00 0.00 0.00 99 892.1
20260507094723 -1 252 4.8 4.8 0.00 0.00 0.00 99 892.0
20260507094220 -1 252 6.4 8.0 0.00 0.00 0.00 99 891.9
20260507093717 -1 249 6.4 9.7 0.00 0.00 0.00 99 892.1
20260507093216 -1 249 4.8 8.0 0.00 0.00 0.00 99 892.0
20260507092713 -1 249 4.8 8.0 0.00 0.00 0.00 99 892.0
20260507092209 -1 249 4.8 4.8 0.00 0.00 0.00 99 892.0
20260507091705 -1 250 6.4 8.0 0.00 0.00 0.00 99 892.2
20260507091202 -1 253 4.8 4.8 0.00 0.00 0.00 99 892.0
20260507090657 -1 245 8.0 9.7 0.00 0.00 0.00 99 891.9
20260507090155 -1 264 6.4 8.0 0.00 0.00 0.00 99 892.2
20260507085652 -1 252 6.4 9.7 0.00 0.00 0.00 99 892.1
20260507085148 -1 255 4.8 4.8 0.00 0.00 0.00 99 892.4
20260507084645 -1 262 8.0 11.3 0.00 0.00 0.00 99 892.1
20260507084142 -1 250 6.4 8.0 0.00 0.00 0.00 99 892.2
20260507083639 -1 254 8.0 9.7 0.00 0.00 0.00 99 892.2
20260507083136 -1 254 6.4 9.7 0.00 0.00 0.00 99 892.3
20260507082631 -1 255 6.4 8.0 0.00 0.00 0.00 99 892.4
20260507082128 -1 253 6.4 8.0 0.00 0.00 0.00 99 892.3
20260507081625 -1 251 8.0 9.7 0.00 0.00 0.00 99 892.6
20260507081121 -1 248 3.2 3.2 0.00 0.00 0.00 99 892.5
20260507080618 -1 249 6.4 8.0 0.00 0.00 0.00 99 892.6
20260507080114 -1 247 1.6 1.6 0.00 0.00 0.00 99 892.7
20260507075609 -1 247 3.2 3.2 0.00 0.00 0.00 99 892.9
20260507075105 -1 247 4.8 4.8 0.00 0.00 0.00 99 892.6
20260507074603 -1 264 1.6 1.6 0.00 0.00 0.00 99 893.0
20260507074101 -1 251 3.2 4.8 0.00 0.00 0.00 99 893.1
20260507073556 -1 249 4.8 4.8 0.00 0.00 0.00 99 893.1
20260507073053 0 248 3.2 4.8 0.00 0.00 0.00 99 893.1
20260507072550 0 248 3.2 3.2 0.00 0.00 0.00 99 892.9
20260507072047 0 249 1.6 1.6 0.00 0.00 0.00 99 892.9
20260507071545 0 269 3.2 3.2 0.00 0.00 0.00 99 892.9
20260507071041 0 269 0.0 1.6 0.00 0.00 0.00 99 893.2
20260507070538 0 269 0.0 0.0 0.00 0.00 0.00 99 893.2
20260507070035 -1 269 0.0 0.0 0.00 0.00 0.00 99 893.3
20260507065532 -1 269 0.0 0.0 0.00 0.00 0.00 99 893.2
20260507065029 0 272 1.6 3.2 0.00 0.00 0.00 99 893.2
20260507064527 0 272 0.0 0.0 0.00 0.00 0.00 99 893.4
20260507064025 0 272 0.0 0.0 0.00 0.00 0.00 99 893.4
20260507063522 0 275 0.0 0.0 0.00 0.00 0.00 99 893.3
20260507063020 0 275 0.0 0.0 0.00 0.00 0.00 99 893.4
20260507062516 0 275 0.0 0.0 0.00 0.00 0.00 99 893.3
20260507062014 0 275 0.0 0.0 0.00 0.00 0.00 99 893.5
20260507061511 0 275 0.0 0.0 0.00 0.00 0.00 99 893.4
20260507061009 0 275 0.0 0.0 0.00 0.00 0.00 99 893.3
20260507060506 0 275 0.0 0.0 0.00 0.00 0.00 99 893.2
20260507060003 0 275 0.0 0.0 0.00 0.58 0.58 99 893.2
20260507055458 0 275 0.0 0.0 0.00 0.58 0.58 99 893.3
20260507054955 0 276 1.6 1.6 0.00 0.58 0.58 99 893.3
20260507054450 0 286 0.0 0.0 0.00 0.58 0.58 99 893.4
20260507053948 0 286 0.0 0.0 0.00 0.58 0.58 99 893.1
20260507053446 0 287 0.0 0.0 0.00 0.58 0.58 99 893.2
20260507052944 0 287 0.0 0.0 0.00 0.58 0.58 99 893.2
20260507052441 0 287 0.0 0.0 0.00 0.58 0.58 99 893.1
20260507051938 0 286 0.0 0.0 0.00 0.58 0.58 99 893.1
20260507051436 0 287 0.0 0.0 0.00 0.58 0.58 99 893.2
20260507050932 0 287 0.0 0.0 0.00 0.58 0.58 99 893.0
20260507050429 0 287 0.0 0.0 0.00 0.58 0.58 99 892.7
20260507045926 0 287 0.0 0.0 0.00 0.58 0.58 99 893.0
20260507045422 0 287 0.0 0.0 0.00 0.58 0.58 99 893.1
20260507044920 0 287 0.0 0.0 0.00 0.58 0.58 99 893.2
20260507044416 0 287 0.0 0.0 0.00 0.58 0.58 99 893.3
20260507043912 0 287 0.0 0.0 0.00 0.58 0.58 99 893.3
20260507043409 0 286 0.0 0.0 0.00 0.58 0.58 99 893.1
20260507042905 0 287 0.0 0.0 0.00 0.58 0.58 99 893.3
20260507042402 0 340 0.0 0.0 0.00 0.58 0.58 99 893.4
20260507041857 0 341 0.0 0.0 0.00 0.58 0.58 99 893.2
20260507041355 0 341 0.0 0.0 0.00 0.58 0.58 99 893.0
20260507040852 0 341 0.0 0.0 0.00 0.58 0.58 99 893.1
20260507040348 0 341 0.0 0.0 0.00 0.58 0.58 99 893.2
20260507035844 0 341 0.0 0.0 0.00 0.58 0.58 99 893.1
20260507035340 0 341 0.0 0.0 0.00 0.58 0.58 99 893.3
20260507034837 0 341 0.0 0.0 0.00 0.58 0.58 99 893.1
20260507034334 0 341 0.0 0.0 0.00 0.58 0.58 99 893.2
20260507033832 0 341 0.0 0.0 0.00 0.58 0.58 99 893.4
20260507033330 0 341 0.0 0.0 0.00 0.58 0.58 99 893.3
20260507032826 0 341 0.0 0.0 0.00 0.58 0.58 99 893.1
20260507032322 0 341 0.0 0.0 0.00 0.58 0.58 99 893.4
20260507031819 0 341 0.0 0.0 0.00 0.58 0.58 99 893.3
20260507031316 0 341 0.0 0.0 0.00 0.58 0.58 99 893.3
20260507030812 0 341 0.0 0.0 0.00 0.58 0.58 99 893.0
20260507030311 1 341 0.0 0.0 0.00 0.58 0.58 99 892.9
20260507025807 1 341 0.0 0.0 0.00 0.58 0.58 99 893.0
20260507025306 1 341 0.0 0.0 0.00 0.58 0.58 99 893.2
20260507024802 1 341 0.0 0.0 0.00 0.58 0.58 99 893.0
20260507024259 1 341 0.0 0.0 0.18 0.58 0.58 99 893.1
20260507023755 1 341 0.0 0.0 0.18 0.58 0.58 99 892.7
20260507023252 1 341 0.0 0.0 0.00 0.56 0.56 99 892.6
20260507022749 1 341 0.0 0.0 0.00 0.56 0.56 99 892.9
20260507022245 1 341 0.0 0.0 0.00 0.56 0.56 99 892.9
20260507021741 1 341 0.0 0.0 0.13 0.56 0.56 99 892.6
20260507021237 1 341 0.0 0.0 0.13 0.56 0.56 99 892.7
20260507020735 1 341 0.0 0.0 0.00 0.53 0.53 99 892.4
20260507020232 0 341 0.0 0.0 0.18 0.53 0.53 99 892.5
20260507015729 0 337 0.0 1.6 0.18 0.53 0.53 99 892.2
20260507015226 0 312 0.0 0.0 0.18 0.51 0.51 99 892.4
20260507014723 0 311 0.0 0.0 0.18 0.51 0.51 99 892.7
20260507014219 0 318 0.0 0.0 0.13 0.48 0.48 99 892.6
20260507013716 0 327 0.0 0.0 0.13 0.48 0.48 99 892.5
20260507013214 0 327 0.0 0.0 0.13 0.48 0.48 99 892.4
20260507012711 0 327 3.2 3.2 0.00 0.46 0.46 99 892.2
20260507012206 0 324 0.0 0.0 0.00 0.46 0.46 99 891.9
20260507011704 0 324 0.0 0.0 0.00 0.46 0.46 99 892.1
20260507011200 0 324 0.0 1.6 0.00 0.46 0.46 99 892.0
20260507010700 0 324 0.0 0.0 0.18 0.46 0.46 99 891.6
20260507010156 0 335 1.6 3.2 0.48 0.46 0.46 99 891.4
20260507005654 0 335 0.0 0.0 0.30 0.43 0.43 99 891.5
20260507005155 0 335 0.0 0.0 0.13 0.38 0.38 99 891.5
20260507004652 0 347 4.8 8.0 0.13 0.38 0.38 99 891.5
20260507004149 1 351 0.0 1.6 0.00 0.36 0.36 99 891.6
20260507003646 1 352 1.6 3.2 0.00 0.36 0.36 99 891.4
20260507003145 1 334 9.7 12.9 0.00 0.36 0.36 99 891.6
20260507002642 1 331 4.8 9.7 0.00 0.36 0.36 99 891.6
20260507002138 1 350 14.5 16.1 0.00 0.36 0.36 99 891.3
20260507001635 1 351 6.4 8.0 0.00 0.36 0.36 99 891.3
20260507001133 1 352 11.3 14.5 0.00 0.36 0.36 99 891.5
20260507000629 1 335 1.6 3.2 0.00 0.36 0.36 99 891.6
20260507000124 1 352 8.0 11.3 0.00 0.36 0.36 99 891.4
20260506235622 1 324 14.5 20.9 0.18 0.36 0.36 99 891.4
20260506235122 1 349 9.7 11.3 0.18 0.36 0.36 99 891.5
20260506234620 1 342 12.9 20.9 0.00 0.33 0.33 99 891.5
20260506234116 1 352 8.0 11.3 0.13 0.33 0.33 99 891.3
20260506233613 1 308 0.0 3.2 0.30 0.33 0.33 99 891.3
20260506233110 1 1 4.8 4.8 0.30 0.30 0.30 99 891.0
20260506232606 1 326 12.9 16.1 0.13 0.28 0.28 99 891.1
20260506232102 3 339 14.5 16.1 0.00 0.25 0.25 99 891.0
20260506231559 3 321 0.0 0.0 0.36 0.25 0.25 99 890.8
20260506231058 3 322 0.0 0.0 0.48 0.25 0.25 99 890.5
20260506230554 3 323 0.0 0.0 0.61 0.23 0.23 99 890.6
20260506230051 3 325 0.0 1.6 0.48 0.18 0.18 99 890.5
20260506225548 3 327 0.0 0.0 0.30 0.13 0.13 99 890.0
20260506225044 3 328 0.0 0.0 0.30 0.10 0.10 99 889.8
20260506224541 3 76 0.0 0.0 0.18 0.08 0.08 99 889.9
20260506224038 3 76 0.0 0.0 0.00 0.05 0.05 99 889.5
20260506223533 3 75 0.0 1.6 0.00 0.05 0.05 99 889.4
20260506223030 3 75 4.8 8.0 0.00 0.05 0.05 99 889.5
20260506222527 3 72 0.0 1.6 0.00 0.05 0.05 99 889.5
20260506222023 3 72 3.2 4.8 0.00 0.05 0.05 99 889.3
20260506221521 3 74 1.6 1.6 0.00 0.05 0.05 99 889.4
20260506221019 3 52 3.2 4.8 0.00 0.05 0.05 99 889.6
20260506220514 3 77 1.6 3.2 0.00 0.05 0.05 99 889.4
20260506220010 3 48 1.6 1.6 0.00 0.05 0.05 99 889.3
20260506215507 3 75 1.6 3.2 0.00 0.05 0.05 99 889.3
20260506215003 3 69 4.8 4.8 0.00 0.05 0.05 99 889.4
20260506214500 3 60 4.8 8.0 0.00 0.05 0.05 99 889.2
20260506213957 3 58 3.2 3.2 0.00 0.05 0.05 99 889.2
20260506213455 3 53 3.2 3.2 0.00 0.05 0.05 99 889.3
20260506212952 3 72 0.0 0.0 0.00 0.05 0.05 99 889.2
20260506212448 3 73 4.8 8.0 0.00 0.05 0.05 99 889.2
20260506211943 3 73 0.0 1.6 0.00 0.05 0.05 99 889.3
20260506211439 3 70 0.0 1.6 0.00 0.05 0.05 99 889.3
20260506210937 3 67 4.8 4.8 0.00 0.05 0.05 99 889.4
20260506210433 3 81 0.0 0.0 0.00 0.05 0.05 99 889.4
20260506205930 3 100 3.2 4.8 0.00 0.05 0.05 99 889.5
20260506205426 3 73 1.6 1.6 0.00 0.05 0.05 99 889.4
20260506204923 3 69 1.6 3.2 0.00 0.05 0.05 99 889.3
20260506204421 3 66 4.8 8.0 0.00 0.05 0.05 99 889.4
20260506203918 3 72 0.0 0.0 0.00 0.05 0.05 99 889.4
20260506203415 3 73 1.6 3.2 0.00 0.05 0.05 99 889.4
20260506202912 3 95 6.4 8.0 0.00 0.05 0.05 99 889.6
20260506202409 3 71 3.2 4.8 0.00 0.05 0.05 99 889.7
20260506201905 3 78 3.2 4.8 0.00 0.05 0.05 99 889.6
20260506201403 3 105 4.8 8.0 0.00 0.05 0.05 99 889.6
20260506200859 3 79 4.8 4.8 0.00 0.05 0.05 99 889.4
20260506200355 3 71 4.8 4.8 0.00 0.05 0.05 99 889.4
20260506195852 3 91 3.2 4.8 0.00 0.05 0.05 99 889.6
20260506195349 3 135 8.0 11.3 0.00 0.05 0.05 99 889.3
20260506194846 3 90 4.8 11.3 0.00 0.05 0.05 99 889.6
20260506194343 3 89 6.4 9.7 0.00 0.05 0.05 99 889.6
20260506193840 3 88 3.2 4.8 0.00 0.05 0.05 99 889.6
20260506193337 3 85 4.8 9.7 0.00 0.05 0.05 99 889.5
20260506192833 3 77 4.8 8.0 0.00 0.05 0.05 99 889.4
20260506192330 3 75 0.0 1.6 0.00 0.05 0.05 99 889.3
20260506191827 3 88 0.0 1.6 0.00 0.05 0.05 99 889.3
20260506191323 3 70 1.6 3.2 0.00 0.05 0.05 99 889.6
20260506190820 3 77 4.8 8.0 0.00 0.05 0.05 99 889.5
20260506190317 3 157 4.8 4.8 0.00 0.05 0.05 99 889.6
20260506185814 3 96 4.8 4.8 0.00 0.05 0.05 99 889.3
20260506185311 3 103 4.8 4.8 0.00 0.05 0.05 99 889.5
20260506184808 3 120 0.0 0.0 0.00 0.05 0.05 99 889.4
20260506184305 3 158 6.4 9.7 0.00 0.05 0.05 99 889.5
20260506183802 3 103 3.2 4.8 0.00 0.05 0.05 99 889.3
20260506183257 3 111 8.0 9.7 0.00 0.05 0.05 99 889.3
20260506182754 3 80 4.8 8.0 0.00 0.05 0.05 99 889.4
20260506182251 3 103 8.0 11.3 0.00 0.05 0.05 99 889.5
20260506181749 3 99 8.0 11.3 0.00 0.05 0.05 99 889.6
20260506181247 3 119 4.8 4.8 0.00 0.05 0.05 99 889.4
20260506180744 3 102 6.4 8.0 0.00 0.05 0.05 99 889.2
20260506180239 3 91 4.8 8.0 0.00 0.05 0.05 99 889.4
20260506175736 3 133 3.2 4.8 0.00 0.05 0.05 99 889.3
20260506175233 3 106 6.4 8.0 0.00 0.05 0.05 99 889.3
20260506174731 3 105 8.0 11.3 0.00 0.05 0.05 99 889.4
20260506174227 3 92 6.4 9.7 0.00 0.05 0.05 99 889.1
20260506173725 3 92 8.0 9.7 0.00 0.05 0.05 99 889.3
20260506173222 3 88 4.8 4.8 0.00 0.05 0.05 99 889.4
20260506172719 3 96 6.4 9.7 0.00 0.05 0.05 99 889.4
20260506172215 3 107 6.4 8.0 0.00 0.05 0.05 99 889.2
20260506171713 3 122 8.0 11.3 0.00 0.05 0.05 99 889.2
20260506171210 3 102 4.8 8.0 0.00 0.05 0.05 99 889.1
20260506170708 4 87 8.0 11.3 0.00 0.05 0.05 99 889.2
20260506170204 3 116 8.0 9.7 0.00 0.05 0.05 99 888.9
20260506165702 3 95 9.7 11.3 0.00 0.05 0.05 99 888.9
20260506165159 3 133 4.8 8.0 0.00 0.05 0.05 99 888.9
20260506164656 3 99 8.0 11.3 0.00 0.05 0.05 99 888.7
20260506164153 3 104 6.4 9.7 0.00 0.05 0.05 99 888.8
20260506163649 3 111 8.0 11.3 0.00 0.05 0.05 99 888.9
20260506163145 3 108 8.0 14.5 0.00 0.05 0.05 99 888.7
20260506162641 3 107 8.0 9.7 0.00 0.05 0.05 99 888.8
20260506162139 2 86 8.0 11.3 0.00 0.05 0.05 99 888.8
20260506161636 2 84 8.0 12.9 0.00 0.05 0.05 99 888.8
20260506161133 2 85 12.9 16.1 0.00 0.05 0.05 99 888.8
20260506160630 2 108 11.3 12.9 0.00 0.05 0.05 99 888.8
20260506160127 2 89 8.0 11.3 0.00 0.05 0.05 99 888.8
20260506155626 2 96 8.0 11.3 0.00 0.05 0.05 99 888.8
20260506155122 2 109 9.7 11.3 0.00 0.05 0.05 99 888.8
20260506153219 2 90 8.0 11.3 0.00 0.05 0.05 99 888.6
20260506152715 2 77 8.0 11.3 0.00 0.05 0.05 99 888.6
20260506152213 2 88 4.8 4.8 0.00 0.05 0.05 99 888.6
20260506151712 2 106 6.4 8.0 0.00 0.05 0.05 99 889.0
20260506151208 2 105 4.8 9.7 0.00 0.05 0.05 99 888.6
20260506150704 2 74 3.2 4.8 0.00 0.05 0.05 99 888.9
20260506150201 2 82 3.2 4.8 0.00 0.05 0.05 99 888.8
20260506145659 2 77 3.2 4.8 0.00 0.05 0.05 99 888.8